N8295H KSFO-KFAT

Flight info

Callsign N8295H
Flight time 0h 48m
Altitude 13000
Route GAPP7 SFO OAK V244 ALTAM MOD NTELL
Aircraft P46T/L-SBDGRWY/SB1

Departure

Time 2026-04-21 03:49
Airport San Francisco International Airport (KSFO)

Arrival

Time 2026-04-21 04:38
Airport Fresno Yosemite International Airport (KFAT)
Time Latitude Longitude Altitude Speed Heading
2026-04-21 03:32 37.62781 -122.38439 11 ft 0 kts 300°
2026-04-21 03:43 37.62769 -122.38461 11 ft 4 kts 224°
2026-04-21 03:43 37.62763 -122.38469 11 ft 0 kts 228°
2026-04-21 03:43 37.62758 -122.38476 12 ft 7 kts 226°
2026-04-21 03:44 37.62750 -122.38486 12 ft 0 kts 226°
2026-04-21 03:45 37.62731 -122.38515 12 ft 8 kts 223°
2026-04-21 03:45 37.62675 -122.38495 13 ft 14 kts 117°
2026-04-21 03:46 37.62617 -122.38356 11 ft 20 kts 117°
2026-04-21 03:46 37.62552 -122.38203 12 ft 20 kts 118°
2026-04-21 03:46 37.62487 -122.38046 14 ft 20 kts 118°
2026-04-21 03:46 37.62422 -122.37894 16 ft 20 kts 118°
2026-04-21 03:47 37.62357 -122.37738 16 ft 20 kts 117°
2026-04-21 03:47 37.62305 -122.37611 13 ft 8 kts 117°
2026-04-21 03:47 37.62301 -122.37603 13 ft 0 kts 117°
2026-04-21 03:47 37.62296 -122.37591 13 ft 7 kts 118°
2026-04-21 03:48 37.62244 -122.37543 14 ft 10 kts 203°
2026-04-21 03:48 37.62185 -122.37619 15 ft 15 kts 229°
2026-04-21 03:48 37.62172 -122.37661 15 ft 0 kts 295°
2026-04-21 03:48 37.62244 -122.37833 16 ft 51 kts 298°
2026-04-21 03:49 37.62487 -122.38417 15 ft 97 kts 297°
2026-04-21 03:49 37.62847 -122.39250 203 ft 116 kts 298°
2026-04-21 03:49 37.63254 -122.40168 558 ft 127 kts 297°
2026-04-21 03:49 37.63663 -122.41203 941 ft 136 kts 292°
2026-04-21 03:50 37.64116 -122.42294 1346 ft 144 kts 296°
2026-04-21 03:50 37.64658 -122.43368 1809 ft 147 kts 302°
2026-04-21 03:50 37.65439 -122.44255 2127 ft 162 kts 336°
2026-04-21 03:50 37.66562 -122.44134 2517 ft 170 kts 29°
2026-04-21 03:51 37.67313 -122.43016 2927 ft 169 kts 73°
2026-04-21 03:51 37.67622 -122.41577 3338 ft 173 kts 76°
2026-04-21 03:51 37.67481 -122.40303 3401 ft 165 kts 165°
2026-04-21 03:51 37.66827 -122.39433 3742 ft 137 kts 99°
2026-04-21 03:52 37.67347 -122.38407 4128 ft 149 kts 31°
2026-04-21 03:52 37.68233 -122.37730 4557 ft 149 kts 43°
2026-04-21 03:52 37.68832 -122.36696 4953 ft 147 kts 76°
2026-04-21 03:52 37.69172 -122.35442 5295 ft 155 kts 81°
2026-04-21 03:53 37.69513 -122.34116 5635 ft 163 kts 81°
2026-04-21 03:53 37.69873 -122.32733 6008 ft 169 kts 79°
2026-04-21 03:53 37.70262 -122.31301 6358 ft 175 kts 79°
2026-04-21 03:53 37.70646 -122.29829 6682 ft 178 kts 81°
2026-04-21 03:54 37.71033 -122.28334 7009 ft 179 kts 77°
2026-04-21 03:54 37.71469 -122.26869 7332 ft 178 kts 85°
2026-04-21 03:54 37.71778 -122.25336 7653 ft 182 kts 84°
2026-04-21 03:54 37.72185 -122.23796 7981 ft 188 kts 80°
2026-04-21 03:55 37.72606 -122.22232 8319 ft 187 kts 85°
2026-04-21 03:55 37.72894 -122.20654 8653 ft 187 kts 88°
2026-04-21 03:55 37.73190 -122.19039 8989 ft 190 kts 88°
2026-04-21 03:55 37.73492 -122.17396 9329 ft 193 kts 89°
2026-04-21 03:56 37.73796 -122.15730 9674 ft 196 kts 89°
2026-04-21 03:56 37.74000 -122.14062 10016 ft 183 kts 109°
2026-04-21 03:56 37.73504 -122.12750 10351 ft 158 kts 144°
2026-04-21 03:56 37.72826 -122.11627 10658 ft 166 kts 134°
2026-04-21 03:57 37.72297 -122.10314 10986 ft 169 kts 130°
2026-04-21 03:57 37.71817 -122.08956 11296 ft 168 kts 129°
2026-04-21 03:57 37.71349 -122.07620 11631 ft 165 kts 132°
2026-04-21 03:57 37.70861 -122.06305 11934 ft 166 kts 130°
2026-04-21 03:58 37.70386 -122.04979 12270 ft 165 kts 130°
2026-04-21 03:58 37.69919 -122.03677 12589 ft 164 kts 131°
2026-04-21 03:58 37.69624 -122.02352 12857 ft 152 kts 117°
2026-04-21 03:58 37.69194 -122.01411 13207 ft 100 kts 165°
2026-04-21 03:59 37.68624 -122.00856 13571 ft 112 kts 148°
2026-04-21 03:59 37.68118 -122.00135 13988 ft 108 kts 150°
2026-04-21 03:59 37.67581 -121.99478 14406 ft 105 kts 153°
2026-04-21 04:00 37.66518 -121.98243 15243 ft 105 kts 149°
2026-04-21 04:00 37.66008 -121.97505 15536 ft 116 kts 147°
2026-04-21 04:00 37.65481 -121.96727 15931 ft 119 kts 144°
2026-04-21 04:00 37.65004 -121.95861 16367 ft 124 kts 140°
2026-04-21 04:01 37.64546 -121.94924 16762 ft 126 kts 140°
2026-04-21 04:01 37.64240 -121.94296 17021 ft 128 kts 140°
2026-04-21 04:01 37.63767 -121.93329 17333 ft 132 kts 140°
2026-04-21 04:01 37.63159 -121.92419 17397 ft 139 kts 150°
2026-04-21 04:02 37.62376 -121.91713 17632 ft 137 kts 160°
2026-04-21 04:02 37.61477 -121.91408 17862 ft 136 kts 165°
2026-04-21 04:02 37.60798 -121.90448 18075 ft 171 kts 126°
2026-04-21 04:02 37.60673 -121.88836 18293 ft 193 kts 108°
2026-04-21 04:03 37.60597 -121.87191 18476 ft 179 kts 124°
2026-04-21 04:03 37.60002 -121.85944 18688 ft 164 kts 140°
2026-04-21 04:03 37.59407 -121.84657 18869 ft 175 kts 133°
2026-04-21 04:03 37.58889 -121.83242 19056 ft 180 kts 130°
2026-04-21 04:04 37.58389 -121.81777 19251 ft 183 kts 130°
2026-04-21 04:04 37.57886 -121.80302 19443 ft 184 kts 130°
2026-04-21 04:04 37.57374 -121.78811 19601 ft 186 kts 128°
2026-04-21 04:04 37.56855 -121.77303 19795 ft 189 kts 129°
2026-04-21 04:05 37.56325 -121.75786 19989 ft 190 kts 129°
2026-04-21 04:05 37.55780 -121.74210 19995 ft 202 kts 128°
2026-04-21 04:05 37.55215 -121.72561 20005 ft 208 kts 128°
2026-04-21 04:05 37.54631 -121.70870 20010 ft 214 kts 127°
2026-04-21 04:06 37.54035 -121.69127 20006 ft 219 kts 127°
2026-04-21 04:06 37.53427 -121.67363 20004 ft 221 kts 128°
2026-04-21 04:06 37.52810 -121.65588 20006 ft 222 kts 127°
2026-04-21 04:06 37.52185 -121.63803 19985 ft 224 kts 127°
2026-04-21 04:07 37.51580 -121.62004 19989 ft 223 kts 127°
2026-04-21 04:07 37.50963 -121.60214 19996 ft 224 kts 126°
2026-04-21 04:07 37.50344 -121.58441 19990 ft 224 kts 128°
2026-04-21 04:07 37.49719 -121.56652 19987 ft 222 kts 127°
2026-04-21 04:08 37.49104 -121.54866 19985 ft 222 kts 127°
2026-04-21 04:08 37.48486 -121.53096 19988 ft 219 kts 128°
2026-04-21 04:08 37.47875 -121.51329 19979 ft 220 kts 127°
2026-04-21 04:08 37.47260 -121.49553 19980 ft 222 kts 127°
2026-04-21 04:09 37.46635 -121.47760 19979 ft 223 kts 127°
2026-04-21 04:09 37.46011 -121.45962 19981 ft 225 kts 127°
2026-04-21 04:09 37.45382 -121.44156 19982 ft 226 kts 127°
2026-04-21 04:09 37.44751 -121.42345 19983 ft 226 kts 127°
2026-04-21 04:10 37.44118 -121.40526 19981 ft 227 kts 127°
2026-04-21 04:10 37.43482 -121.38701 19981 ft 228 kts 127°
2026-04-21 04:10 37.42845 -121.36873 19982 ft 228 kts 127°
2026-04-21 04:10 37.42213 -121.35062 19981 ft 229 kts 127°
2026-04-21 04:11 37.41575 -121.33231 19981 ft 229 kts 127°
2026-04-21 04:11 37.40934 -121.31398 19981 ft 228 kts 127°
2026-04-21 04:11 37.40295 -121.29573 19974 ft 228 kts 127°
2026-04-21 04:11 37.39658 -121.27750 19975 ft 228 kts 127°
2026-04-21 04:12 37.39023 -121.25932 19979 ft 227 kts 127°
2026-04-21 04:12 37.38388 -121.24120 19968 ft 227 kts 129°
2026-04-21 04:12 37.37748 -121.22303 19965 ft 228 kts 128°
2026-04-21 04:12 37.37109 -121.20472 19980 ft 229 kts 128°
2026-04-21 04:13 37.36462 -121.18638 19974 ft 230 kts 128°
2026-04-21 04:13 37.35815 -121.16795 19976 ft 231 kts 127°
2026-04-21 04:13 37.35171 -121.14945 19974 ft 231 kts 128°
2026-04-21 04:13 37.34519 -121.13100 19975 ft 231 kts 128°
2026-04-21 04:14 37.33869 -121.11252 19972 ft 231 kts 128°
2026-04-21 04:14 37.33217 -121.09400 19973 ft 231 kts 128°
2026-04-21 04:14 37.32569 -121.07555 19972 ft 231 kts 128°
2026-04-21 04:14 37.31919 -121.05714 19969 ft 230 kts 128°
2026-04-21 04:15 37.31279 -121.03898 19966 ft 230 kts 128°
2026-04-21 04:15 37.30630 -121.02059 19965 ft 230 kts 128°
2026-04-21 04:15 37.29981 -121.00220 19966 ft 230 kts 128°
2026-04-21 04:15 37.29332 -120.98382 19966 ft 230 kts 128°
2026-04-21 04:16 37.28682 -120.96545 19970 ft 230 kts 128°
2026-04-21 04:16 37.28034 -120.94711 19962 ft 229 kts 129°
2026-04-21 04:16 37.27387 -120.92883 19960 ft 229 kts 129°
2026-04-21 04:16 37.26739 -120.91054 19958 ft 229 kts 129°
2026-04-21 04:17 37.26090 -120.89222 19963 ft 229 kts 129°
2026-04-21 04:17 37.25442 -120.87395 19963 ft 229 kts 129°
2026-04-21 04:17 37.24790 -120.85567 19962 ft 229 kts 130°
2026-04-21 04:17 37.24075 -120.83806 19966 ft 225 kts 134°
2026-04-21 04:18 37.23347 -120.82054 19959 ft 228 kts 130°
2026-04-21 04:18 37.22692 -120.80227 19959 ft 231 kts 128°
2026-04-21 04:18 37.22067 -120.78402 19958 ft 231 kts 128°
2026-04-21 04:18 37.21422 -120.76561 19958 ft 230 kts 129°
2026-04-21 04:19 37.20768 -120.74725 19957 ft 229 kts 129°
2026-04-21 04:19 37.20128 -120.72919 19815 ft 227 kts 129°
2026-04-21 04:19 37.19478 -120.71101 19549 ft 229 kts 129°
2026-04-21 04:19 37.18826 -120.69265 19292 ft 230 kts 129°
2026-04-21 04:20 37.18176 -120.67428 19036 ft 230 kts 129°
2026-04-21 04:20 37.17525 -120.65592 18780 ft 230 kts 129°
2026-04-21 04:20 37.16873 -120.63760 18528 ft 230 kts 129°
2026-04-21 04:20 37.16232 -120.61946 18343 ft 224 kts 129°
2026-04-21 04:21 37.15607 -120.60181 18039 ft 219 kts 129°
2026-04-21 04:21 37.14992 -120.58457 17717 ft 215 kts 129°
2026-04-21 04:21 37.14387 -120.56762 17405 ft 211 kts 129°
2026-04-21 04:21 37.13791 -120.55095 17108 ft 209 kts 129°
2026-04-21 04:22 37.13200 -120.53438 16802 ft 207 kts 128°
2026-04-21 04:22 37.12620 -120.51816 16511 ft 206 kts 128°
2026-04-21 04:22 37.12038 -120.50185 16214 ft 204 kts 128°
2026-04-21 04:22 37.11447 -120.48601 16076 ft 194 kts 132°
2026-04-21 04:23 37.10776 -120.47132 15731 ft 197 kts 133°
2026-04-21 04:23 37.10130 -120.45592 15367 ft 202 kts 129°
2026-04-21 04:23 37.09513 -120.43996 14996 ft 204 kts 128°
2026-04-21 04:23 37.08894 -120.42390 14622 ft 205 kts 128°
2026-04-21 04:24 37.08269 -120.40786 14249 ft 205 kts 128°
2026-04-21 04:24 37.07642 -120.39179 13871 ft 205 kts 128°
2026-04-21 04:24 37.07013 -120.37573 13478 ft 206 kts 127°
2026-04-21 04:24 37.06385 -120.35965 13097 ft 204 kts 127°
2026-04-21 04:25 37.05772 -120.34396 12732 ft 203 kts 127°
2026-04-21 04:25 37.05154 -120.32818 12364 ft 201 kts 127°
2026-04-21 04:25 37.04540 -120.31251 12001 ft 200 kts 127°
2026-04-21 04:25 37.03930 -120.29695 11626 ft 199 kts 126°
2026-04-21 04:26 37.03324 -120.28148 11269 ft 197 kts 126°
2026-04-21 04:26 37.02720 -120.26610 10904 ft 196 kts 126°
2026-04-21 04:26 37.02120 -120.25081 10558 ft 195 kts 125°
2026-04-21 04:26 37.01521 -120.23555 10201 ft 195 kts 124°
2026-04-21 04:27 37.00924 -120.22035 9846 ft 194 kts 124°
2026-04-21 04:27 37.00332 -120.20528 9485 ft 192 kts 124°
2026-04-21 04:27 36.99746 -120.19036 9137 ft 190 kts 124°
2026-04-21 04:27 36.99163 -120.17554 8788 ft 189 kts 124°
2026-04-21 04:28 36.98589 -120.16094 8448 ft 189 kts 123°
2026-04-21 04:28 36.98006 -120.14615 8102 ft 189 kts 123°
2026-04-21 04:28 36.97426 -120.13140 7754 ft 189 kts 123°
2026-04-21 04:28 36.96844 -120.11664 7410 ft 189 kts 123°
2026-04-21 04:29 36.96260 -120.10185 7062 ft 190 kts 122°
2026-04-21 04:29 36.95673 -120.08698 6711 ft 191 kts 122°
2026-04-21 04:29 36.95084 -120.07204 6365 ft 192 kts 121°
2026-04-21 04:29 36.94496 -120.05714 6009 ft 189 kts 121°
2026-04-21 04:30 36.93921 -120.04254 5664 ft 185 kts 121°
2026-04-21 04:30 36.93354 -120.02817 5330 ft 184 kts 120°
2026-04-21 04:30 36.92785 -120.01379 4991 ft 185 kts 120°
2026-04-21 04:30 36.92213 -119.99934 4670 ft 186 kts 120°
2026-04-21 04:31 36.91639 -119.98482 4327 ft 187 kts 120°
2026-04-21 04:31 36.91061 -119.97023 3989 ft 188 kts 120°
2026-04-21 04:31 36.90483 -119.95566 3647 ft 191 kts 119°
2026-04-21 04:31 36.89891 -119.94070 3300 ft 194 kts 119°
2026-04-21 04:32 36.89277 -119.92562 2948 ft 195 kts 123°
2026-04-21 04:32 36.88513 -119.91217 2830 ft 186 kts 128°
2026-04-21 04:32 36.87776 -119.89921 2704 ft 180 kts 127°
2026-04-21 04:32 36.87063 -119.88660 2596 ft 174 kts 127°
2026-04-21 04:33 36.86373 -119.87440 2478 ft 170 kts 127°
2026-04-21 04:33 36.85691 -119.86239 2351 ft 169 kts 127°
2026-04-21 04:33 36.85012 -119.85046 2226 ft 167 kts 127°
2026-04-21 04:33 36.84362 -119.83898 2102 ft 154 kts 127°
2026-04-21 04:34 36.83772 -119.82853 1994 ft 146 kts 127°
2026-04-21 04:34 36.83204 -119.81853 1903 ft 134 kts 131°
2026-04-21 04:34 36.82682 -119.80933 1788 ft 128 kts 131°
2026-04-21 04:34 36.82175 -119.80041 1628 ft 124 kts 132°
2026-04-21 04:35 36.81697 -119.79197 1456 ft 110 kts 134°
2026-04-21 04:35 36.81287 -119.78456 1285 ft 100 kts 133°
2026-04-21 04:35 36.80907 -119.77737 1124 ft 100 kts 129°
2026-04-21 04:35 36.80501 -119.77046 993 ft 97 kts 135°
2026-04-21 04:36 36.80101 -119.76369 970 ft 98 kts 133°
2026-04-21 04:36 36.79696 -119.75662 867 ft 101 kts 128°
2026-04-21 04:36 36.79306 -119.74951 755 ft 96 kts 133°
2026-04-21 04:36 36.78901 -119.74306 636 ft 94 kts 128°
2026-04-21 04:37 36.78502 -119.73639 512 ft 99 kts 123°
2026-04-21 04:37 36.78121 -119.72919 346 ft 96 kts 128°
2026-04-21 04:37 36.77776 -119.72319 327 ft 74 kts 130°
2026-04-21 04:37 36.77512 -119.71859 331 ft 59 kts 124°
2026-04-21 04:38 36.77319 -119.71560 330 ft 20 kts 171°
2026-04-21 04:38 36.77200 -119.71634 330 ft 20 kts 215°
2026-04-21 04:38 36.77088 -119.71733 326 ft 17 kts 215°
2026-04-21 04:38 36.77080 -119.71840 327 ft 7 kts 302°
2026-04-21 04:39 36.77085 -119.71851 328 ft 0 kts 303°